Location: Newark
(54.2500°N, 9.1833°E)
Time: 21:29:58
(UTC+00:00)

A-11 Canister half - Pass Details

Date: 12 December 2019
Orbit: 1517 x 1683 km, 47.2° (Epoch: 27 January)

Event Time Altitude Azimuth Distance (km) Brightness Sun altitude
Rises 15:28:33 0° 275° (W) 4,830 12.5 -4.2°
Reaches altitude 10° 15:31:45 10° 271° (W) 3,865 12.1 -4.6°
Maximum altitude 15:41:06 49° 201° (SSW) 2,055 10.1 -5.7°
Drops below altitude 10° 15:50:39 10° 130° (SE) 3,940 11.0 -6.9°
Sets 15:53:57 0° 126° (SE) 4,931 11.4 -7.3°
